Lapse_Rate
5.6 5.6 5.6 5.8 6.0 6.3 6.1 5.8 5.7 6.5 6.3 6.4 5.9 5.8 5.6 5.5 5.9 5.9 6.0 6.0 6.1 5.7 5.9 5.9 5.9 5.8 5.3 6.4 6.6 6.6 6.9 7.1 7.4 7.5 7.8 7.9 7.8 7.7 7.8 7.8 7.4 7.6 7.4 7.7
5.6 5.8 5.8 5.9 6.0 6.1 6.1 6.1 6.0 6.2 6.6 6.0 6.0 5.7 5.4 5.7 5.7 5.9 6.1 5.9 5.9 5.5 5.9 5.5 5.7 5.6 5.3 5.1 5.6 6.3 6.5 6.9 6.8 6.9 7.0 7.1 7.3 7.3 7.3 7.2 7.2 7.1 7.4 7.3
6.7 6.1 6.0 5.8 6.0 6.2 6.1 5.7 5.6 5.7 5.9 6.1 6.1 5.6 5.6 6.0 5.6 5.5 5.7 5.9 5.8 5.5 5.8 5.9 5.8 5.6 5.4 4.7 4.9 5.6 5.7 5.7 5.8 6.2 6.4 6.5 6.7 6.4 6.4 6.8 6.9 6.7 6.3 6.5
6.9 5.9 6.0 6.3 6.5 6.8 6.5 6.1 5.7 5.5 5.6 6.0 6.3 5.9 5.8 6.0 5.5 5.5 5.7 5.8 5.7 5.6 5.8 5.9 5.9 6.2 5.8 5.4 5.4 5.5 5.2 5.8 6.0 6.2 5.9 5.8 6.4 6.9 5.9 6.3 6.4 6.4 6.1 5.7
6.6 6.6 6.7 6.1 6.9 6.8 6.5 6.3 6.1 5.8 6.0 6.1 6.2 6.2 5.2 5.6 5.4 5.6 5.8 5.8 5.7 5.5 5.6 5.7 5.8 6.1 6.1 6.0 5.4 5.8 6.0 6.1 5.8 5.0 5.7 6.0 6.2 6.0 5.7 6.0 5.7 5.7 5.5 5.1
6.3 7.1 7.4 6.8 6.5 6.3 6.0 6.1 6.0 5.9 6.0 6.1 6.2 5.9 5.2 5.6 5.6 5.7 5.9 5.9 5.7 5.8 5.6 5.6 5.6 5.8 5.8 6.2 6.4 5.7 6.0 5.8 5.7 5.8 5.6 5.7 5.8 5.8 5.8 5.5 5.2 5.9 5.8 5.5
6.7 6.8 7.2 6.3 7.0 6.7 6.4 6.1 5.9 6.1 6.1 6.1 6.0 6.0 6.0 6.1 5.9 5.9 6.0 6.0 5.8 5.8 5.9 5.7 5.7 5.6 5.6 5.6 6.3 6.5 6.5 6.3 5.9 6.0 6.1 6.0 5.8 5.8 5.6 5.9 5.7 5.7 5.5 5.4
6.7 7.0 7.2 6.4 6.6 6.4 6.1 6.0 6.0 6.1 6.1 6.0 5.9 5.9 6.1 6.2 6.3 6.3 6.4 6.4 6.1 5.8 6.0 5.8 5.6 5.6 5.6 5.5 6.1 6.5 6.7 6.3 6.2 6.0 6.0 6.3 6.6 6.6 6.5 5.9 5.6 6.3 6.2 6.0
6.8 7.1 7.0 6.6 5.9 6.4 6.2 5.9 6.0 5.9 5.9 5.9 6.0 6.2 6.4 6.6 6.7 6.7 6.7 6.7 6.4 6.2 6.0 5.9 5.8 5.7 5.6 5.5 5.6 6.2 6.4 6.5 6.5 6.6 6.4 6.3 6.2 6.3 6.2 6.1 6.1 6.1 5.9 5.8
6.8 6.5 6.2 6.5 6.3 6.1 6.0 5.9 5.8 5.8 5.8 6.1 6.4 6.6 6.7 6.8 6.8 6.8 6.9 6.8 6.7 6.4 6.3 6.1 5.7 5.9 5.9 5.8 5.6 5.7 6.1 6.3 6.4 6.5 6.4 6.3 6.3 6.2 6.2 6.2 6.2 6.1 6.2 6.2
6.7 6.3 6.0 5.6 5.6 5.8 5.7 5.6 5.6 5.7 6.1 6.4 6.6 6.7 6.8 7.0 7.0 6.9 6.8 6.8 6.7 6.5 6.4 6.3 6.1 5.8 5.9 5.9 6.1 5.9 5.9 6.0 6.2 6.1 6.1 6.1 6.0 6.1 6.2 6.2 6.0 6.1 6.2 6.2
6.7 6.3 6.0 5.7 5.4 5.6 5.6 5.7 5.9 6.2 6.4 6.6 6.8 7.0 7.2 7.4 7.3 7.2 7.0 6.8 6.7 6.5 6.3 6.2 6.3 6.0 5.7 5.7 5.7 5.9 6.0 6.1 5.9 5.9 6.0 6.1 5.9 5.7 5.6 5.7 5.7 5.6 5.4 5.6
6.4 6.2 6.1 5.8 5.7 5.8 6.0 6.1 6.4 6.6 6.7 6.8 7.4 7.7 7.8 7.7 7.6 7.5 7.2 7.0 6.7 6.5 6.4 6.3 6.1 6.1 5.9 5.7 5.6 5.6 5.7 5.8 5.9 5.8 5.7 5.7 5.7 5.7 5.5 5.3 5.0 4.8 4.5 4.4
6.2 6.1 6.1 6.0 6.1 6.3 6.4 6.7 6.9 6.8 7.1 7.8 7.8 7.6 7.4 7.3 7.2 7.2 7.0 6.9 6.7 6.4 6.4 6.5 6.1 5.9 5.9 5.8 5.7 5.5 5.5 5.5 5.6 5.7 5.7 5.8 5.7 5.6 5.5 5.5 5.4 5.3 5.1 5.0
6.3 6.3 6.3 6.5 6.7 6.9 7.1 7.1 7.2 7.3 7.6 7.6 7.5 7.3 7.2 7.1 7.0 6.9 6.8 6.8 6.7 6.5 6.3 6.4 6.4 6.1 5.9 5.8 5.7 5.6 5.6 5.6 5.5 5.4 5.4 5.4 5.4 5.3 5.4 5.4 5.3 5.3 5.4 5.4
6.4 6.7 6.9 7.1 7.3 7.3 7.3 7.2 7.2 7.3 7.3 7.3 7.2 7.2 7.2 7.0 6.9 7.0 6.8 6.7 6.6 6.5 6.4 6.4 6.3 6.3 6.3 5.9 5.7 5.6 5.5 5.5 5.6 5.6 5.5 5.5 5.4 5.4 5.5 5.5 5.4 5.6 5.5 5.5
6.9 7.1 7.4 7.4 7.4 7.3 7.3 7.3 7.3 7.3 7.2 7.2 7.2 7.2 7.2 7.1 7.0 6.9 6.8 6.7 6.6 6.4 6.3 6.2 6.2 6.2 6.2 6.0 6.0 5.7 5.6 5.5 5.5 5.5 5.6 5.6 5.7 5.7 5.6 5.6 5.4 5.5 5.6 5.6
7.4 7.4 7.4 7.3 7.2 7.2 7.3 7.3 7.4 7.4 7.3 7.2 7.2 7.2 7.1 7.1 6.9 6.8 6.8 6.8 6.8 6.7 6.5 6.3 6.2 6.1 6.0 6.0 6.0 5.9 5.7 5.7 5.5 5.5 5.5 5.5 5.5 5.5 5.6 5.6 5.6 5.5 5.4 5.4
7.5 7.4 7.3 7.2 7.2 7.2 7.2 7.3 7.3 7.2 7.1 7.1 7.1 7.0 6.9 6.8 6.7 6.7 6.7 6.6 6.6 6.6 6.5 6.5 6.5 6.4 6.2 6.0 5.8 5.8 5.8 5.7 5.4 5.4 5.3 5.3 5.3 5.2 5.3 5.4 5.4 5.4 5.3 5.3
7.4 7.3 7.3 7.3 7.3 7.3 7.3 7.3 7.3 7.2 7.1 7.0 6.9 6.7 6.6 6.6 6.5 6.4 6.3 6.2 6.2 6.1 6.1 6.1 6.1 6.0 6.0 6.1 6.0 5.8 5.7 5.6 5.6 5.4 5.2 5.1 5.1 4.9 4.9 5.0 5.0 5.0 5.0 5.0
7.4 7.4 7.3 7.3 7.3 7.3 7.3 7.3 7.3 7.3 7.2 7.1 7.0 6.9 6.8 6.8 6.7 6.6 6.4 6.3 6.2 6.1 6.0 5.9 5.8 5.7 5.6 5.7 5.7 5.6 5.6 5.6 5.5 5.3 5.2 5.1 5.1 5.0 4.8 4.8 4.7 4.6 4.7 4.8
7.4 7.3 7.2 7.2 7.3 7.4 7.4 7.3 7.2 7.1 7.1 7.0 6.9 6.9 6.7 6.6 6.5 6.4 6.4 6.3 6.2 6.1 6.0 5.8 5.7 5.5 5.3 5.2 5.2 5.2 5.3 5.2 5.2 5.1 5.1 5.0 4.9 4.9 4.7 4.7 4.7 4.6 4.5 4.4
7.2 7.2 7.3 7.4 7.4 7.3 7.1 7.0 7.0 6.9 6.7 6.6 6.6 6.5 6.4 6.4 6.3 6.2 6.1 6.1 6.1 6.0 5.9 5.9 5.8 5.7 5.4 5.1 4.8 4.6 4.5 4.6 4.7 4.7 4.7 4.6 4.7 4.7 4.7 4.7 4.6 4.5 4.5 4.5
7.2 7.3 7.3 7.3 7.1 7.0 6.8 6.7 6.6 6.5 6.4 6.2 6.1 6.0 6.0 5.9 5.9 5.8 5.8 5.8 5.7 5.7 5.7 5.7 5.7 5.6 5.4 5.2 4.8 4.6 4.3 4.2 4.2 4.2 4.3 4.3 4.3 4.3 4.4 4.4 4.4 4.4 4.4 4.4
7.3 7.3 7.2 7.0 6.9 6.7 6.6 6.5 6.3 6.2 6.1 5.9 5.8 5.7 5.6 5.5 5.5 5.5 5.5 5.6 5.6 5.5 5.5 5.5 5.5 5.4 5.2 5.0 4.8 4.6 4.4 4.3 4.2 4.1 4.1 4.1 4.1 4.1 4.1 4.0 4.1 4.2 4.2 4.2
7.2 7.1 7.0 6.9 6.7 6.6 6.5 6.4 6.2 6.0 5.9 5.8 5.7 5.6 5.5 5.5 5.4 5.4 5.3 5.4 5.3 5.3 5.3 5.4 5.4 5.4 5.5 5.5 5.5 5.4 5.1 4.7 4.4 4.2 4.1 4.1 4.0 4.0 4.0 4.0 4.0 4.0 4.0 3.9
7.1 6.9 6.9 6.8 6.6 6.5 6.4 6.3 6.2 6.0 5.9 5.8 5.7 5.6 5.4 5.4 5.4 5.3 5.2 5.2 5.2 5.3 5.2 5.3 5.3 5.3 5.6 5.7 5.7 5.7 5.6 5.4 5.2 4.8 4.5 4.2 4.1 4.0 3.9 3.9 3.8 3.8 3.8 3.8
Wind_Speed
4 4 6 11 12 16 12 13 10 12 17 13 10 11 13 13 16 18 18 20 18 15 15 16 18 20 20 20 19 20 19 19 19 19 17 17 17 16 15 12 9 10 6 5
9 8 7 9 11 13 16 15 16 18 17 8 9 11 13 11 15 17 17 18 18 16 14 14 16 16 17 17 17 17 16 17 18 19 18 17 15 16 14 15 12 11 13 3
9 7 7 9 17 16 7 11 12 13 9 13 13 12 12 9 14 16 16 16 17 16 14 13 15 16 16 16 17 16 16 16 17 16 18 16 15 15 15 13 12 12 13 12
5 7 8 2 3 12 16 9 12 10 5 8 11 12 3 6 12 14 16 16 15 15 16 16 14 15 15 14 15 15 17 17 17 18 16 14 13 18 14 12 12 10 10 10
6 11 4 3 5 5 9 9 9 5 4 6 10 14 6 9 12 12 14 13 13 13 14 15 16 17 16 15 15 16 15 14 15 14 13 13 18 11 11 10 10 10 10 11
8 10 7 8 12 4 2 8 8 5 1 4 8 6 5 14 13 13 13 12 13 14 13 14 15 15 15 15 15 16 15 14 13 13 14 14 12 11 8 8 10 8 8 11
8 8 3 9 10 6 5 4 6 6 1 1 3 4 8 11 11 11 12 13 13 12 12 14 15 15 15 16 17 15 14 13 14 14 14 14 12 12 12 10 9 9 7 8
11 10 11 12 9 5 6 6 6 5 3 2 3 6 7 9 10 11 13 13 14 12 12 13 15 15 16 17 18 16 15 15 15 14 12 12 14 12 12 10 10 9 9 8
6 4 10 12 7 7 4 4 5 3 5 3 3 5 8 9 9 10 11 12 12 12 12 12 14 15 15 16 17 16 15 15 13 14 13 12 12 14 10 12 9 9 9 9
6 8 10 8 7 6 5 5 6 3 4 2 3 4 7 8 8 9 10 11 11 13 13 13 14 14 15 16 16 15 14 14 13 12 11 11 9 9 10 11 10 9 9 9
5 8 8 6 6 7 7 4 8 2 4 5 5 4 7 7 8 8 9 10 10 11 11 13 13 13 14 16 16 15 13 12 12 9 11 8 8 9 9 10 12 10 10 8
3 10 2 10 8 6 6 5 4 2 3 6 6 5 7 6 7 9 10 11 11 12 12 13 13 13 13 14 14 14 12 10 9 8 8 8 8 4 12 14 19 20 20 13
4 7 8 10 8 6 8 6 5 5 5 6 6 5 5 6 6 7 9 10 10 11 12 12 12 12 12 13 12 12 10 10 8 9 8 7 7 7 6 5 16 18 18 20
12 12 8 6 4 7 7 6 3 2 3 4 4 4 4 4 4 6 7 9 10 9 10 11 11 11 12 12 11 9 9 9 6 6 6 6 6 7 6 6 6 7 11 12
7 7 10 10 9 6 5 3 2 2 4 4 5 5 6 6 6 6 7 8 9 8 10 10 11 12 12 11 11 9 7 7 7 5 5 5 5 5 5 6 6 7 8 9
9 10 10 8 8 6 4 1 1 3 3 4 4 5 4 5 6 8 9 10 9 9 10 10 11 12 12 11 11 7 7 9 9 6 6 7 6 7 7 7 8 9 8 9
10 8 9 7 5 3 4 4 4 4 5 6 6 6 6 5 6 8 9 8 7 7 10 11 12 11 11 10 11 7 6 7 10 7 8 8 7 8 8 7 7 8 8 9
7 7 5 5 6 6 6 6 6 7 7 7 6 6 7 7 7 7 8 9 9 7 11 11 12 12 11 11 11 7 7 7 6 7 7 7 8 8 7 8 8 8 8 9
10 10 10 8 7 8 7 7 7 6 6 5 6 6 6 6 7 7 6 8 10 10 11 12 14 12 12 12 12 6 7 7 7 7 7 8 7 7 8 8 7 8 8 8
12 12 12 11 10 9 9 7 7 7 6 5 5 5 6 7 7 7 6 8 9 8 11 12 12 12 12 13 13 7 7 7 7 6 6 6 7 7 7 8 8 7 7 7
11 11 11 11 10 9 8 6 6 7 6 5 5 5 4 4 5 8 8 7 10 12 11 12 11 10 9 11 9 8 7 7 7 7 7 7 6 7 7 7 7 7 7 7
10 10 10 10 10 9 7 7 7 6 6 5 3 1 3 4 3 5 7 7 7 13 9 9 9 13 10 12 8 9 9 8 7 7 6 7 6 6 6 6 6 6 6 5
10 10 10 9 9 10 8 7 6 6 5 4 4 5 5 4 5 5 5 9 7 9 7 8 11 13 14 8 8 8 9 9 7 6 6 6 6 6 6 6 6 6 6 6
11 10 10 9 9 8 8 6 6 5 4 5 4 3 5 3 3 4 4 6 9 9 7 8 10 12 11 7 7 8 8 8 8 7 7 8 6 6 6 6 6 6 6 6
11 10 10 9 7 5 8 6 5 4 3 4 3 3 3 4 4 4 4 5 6 7 6 9 11 11 7 7 7 8 7 7 7 7 7 7 7 7 7 6 6 6 6 6
11 7 7 7 3 6 6 6 4 4 4 3 3 2 2 2 2 2 2 3 4 6 5 5 6 7 7 7 7 7 7 7 8 7 7 7 7 7 7 7 6 6 6 7
8 7 6 5 5 4 4 4 4 4 3 2 3 2 2 1 2 2 2 3 4 4 4 4 5 7 6 6 6 7 7 7 8 7 7 6 6 6 7 7 8 9 8 8
Wind_Direction
216 162 164 183 200 214 212 223 262 288 311 325 14 6 349 347 335 351 349 353 352 348 343 344 344 342 343 345 345 347 352 3 5 3 359 4 9 6 3 7 7 357 165 130
219 219 207 218 215 218 226 239 252 262 272 21 349 347 346 347 337 346 349 353 352 347 347 345 346 345 335 338 347 347 350 3 1 5 3 1 9 12 1 4 19 18 5 328
231 200 212 245 234 225 206 226 242 261 315 337 331 333 348 340 340 340 347 352 352 350 351 350 348 343 346 344 342 348 356 2 4 5 2 356 3 27 7 10 13 28 25 35
205 158 217 114 301 224 202 209 239 265 312 308 306 311 4 349 344 340 347 350 354 352 350 353 348 346 342 353 351 354 357 360 4 10 351 348 1 31 7 16 28 24 31 30
211 209 140 175 204 164 189 219 202 214 244 285 310 293 159 14 351 342 346 352 352 349 354 356 352 349 346 357 357 1 1 3 5 355 347 357 21 360 358 21 27 38 33 30
201 230 222 80 123 113 133 245 147 159 278 316 315 314 13 355 333 341 346 358 354 350 355 5 356 348 354 359 357 3 1 4 9 3 1 7 10 3 7 17 32 27 23 27
207 220 138 141 139 158 213 97 124 125 172 304 312 308 329 319 325 341 345 354 357 355 360 4 359 356 1 1 358 354 359 3 10 17 16 13 3 10 18 20 29 24 32 34
223 219 232 137 152 225 92 123 125 140 110 332 331 318 311 317 331 341 347 355 358 356 5 6 2 357 358 1 352 351 356 2 12 16 17 19 20 17 17 19 26 23 29 28
217 216 119 163 96 110 96 107 113 104 87 23 328 323 325 326 338 345 352 354 358 357 3 7 4 3 358 356 350 351 358 2 10 12 20 19 21 24 22 15 26 26 20 25
148 153 139 133 116 118 111 114 121 91 85 95 337 327 327 332 342 347 358 357 358 359 3 3 3 2 1 356 350 357 359 3 1 14 11 28 26 23 24 20 19 21 28 25
132 147 120 161 150 140 121 120 106 64 43 38 8 340 327 340 348 349 358 360 2 2 359 359 359 4 4 358 351 358 0 7 5 10 9 24 45 33 34 32 27 20 16 29
172 133 158 135 135 134 139 123 97 51 38 30 20 355 334 0 1 356 360 358 359 0 357 354 356 359 4 0 355 0 359 0 8 5 10 17 14 57 62 58 47 39 38 33
115 97 100 101 119 97 106 103 95 75 28 12 59 349 359 351 36 359 354 359 356 354 352 350 351 354 358 356 357 0 356 3 360 7 1 11 12 17 19 95 77 56 41 41
110 102 100 82 89 101 120 118 132 72 74 40 29 13 358 354 66 31 17 358 344 352 356 351 348 353 353 347 344 359 359 9 359 9 6 1 9 15 17 20 20 31 47 47
126 65 121 128 131 131 143 163 176 3 18 32 40 20 16 11 16 15 31 13 345 6 359 355 353 353 345 341 346 352 5 7 348 4 9 16 12 21 22 34 44 43 27 18
119 116 130 131 137 133 129 104 54 50 33 44 36 30 30 26 22 18 15 7 5 360 357 358 357 348 340 345 346 359 360 16 357 6 8 15 21 23 29 30 36 47 36 17
136 137 145 142 143 136 93 80 69 59 56 52 35 23 33 31 45 20 9 3 357 8 8 2 355 340 344 354 343 358 6 12 4 12 16 8 18 22 23 30 29 41 48 23
98 105 102 135 134 129 102 86 74 62 56 51 53 55 48 37 27 16 12 3 4 19 15 1 353 345 357 1 346 356 6 9 17 18 14 19 12 20 22 27 27 27 31 37
108 103 97 94 96 101 96 82 74 80 85 85 78 64 51 33 16 9 354 15 15 9 1 359 350 357 2 359 347 1 9 13 19 22 17 20 28 29 18 21 29 27 28 32
105 100 96 89 85 99 103 101 98 93 90 92 93 65 53 37 14 352 346 62 32 359 347 3 2 3 358 353 348 10 16 18 22 26 28 27 24 25 27 29 26 29 28 35
107 105 106 106 101 92 85 94 101 96 77 65 70 64 58 49 40 8 14 28 24 1 357 11 16 5 352 352 358 8 15 20 22 24 23 22 25 27 26 23 29 26 26 28
120 117 114 114 111 102 95 95 101 104 94 85 79 334 270 36 143 103 77 19 13 9 360 15 9 355 352 359 12 13 15 17 19 22 26 20 21 23 28 28 25 26 28 29
126 129 125 124 126 116 108 105 106 106 107 93 58 42 34 44 25 16 10 25 10 3 13 16 359 355 357 11 11 13 14 15 17 19 20 20 25 20 30 23 23 25 22 21
132 135 135 126 131 138 135 136 130 110 110 112 76 11 352 11 88 37 28 23 18 342 44 15 1 2 7 14 12 15 18 14 8 17 15 18 20 22 28 19 19 23 22 22
138 139 138 150 159 161 132 144 133 135 166 111 123 120 35 48 17 37 5 9 18 4 17 28 11 5 16 14 16 11 12 16 13 6 12 17 16 19 17 23 22 9 18 24
152 156 158 183 159 151 155 171 175 162 161 143 116 86 82 48 56 356 41 16 21 10 15 15 20 6 12 16 12 10 11 22 5 12 10 13 14 17 14 13 14 21 18 28
164 144 144 161 163 167 165 168 152 159 182 134 108 108 78 51 73 345 6 9 10 9 9 11 13 20 2 4 15 11 11 13 23 4 8 10 12 14 9 6 9 7 11 18